Location: Famechon
(49.7599°N, 2.0615°E)
Time: 08:18:34
(UTC+00:00)

CZ-2C R/B - Visible Passes

Search period start: 07 October 2024 00:00
Search period end: 17 October 2024 00:00
Orbit: 699 x 771 km, 98.7° (Epoch: 06 October)

Date Brightness Start Highest point End Pass type
(mag) Time Alt. Az. Time Alt. Az. Time Alt. Az.
07 Oct ? 04:48:00 10° NNE 04:52:27 31° E 04:56:55 10° SSE visible
07 Oct ? 17:42:43 10° SW 17:46:07 19° W 17:49:35 10° NW visible
08 Oct ? 04:04:09 10° ENE 04:06:26 13° E 04:08:41 10° ESE visible
09 Oct ? 04:55:12 10° NNE 04:59:50 35° E 05:04:28 10° SSE visible
09 Oct ? 17:50:26 10° SW 17:53:30 17° W 17:56:38 10° NW visible
10 Oct ? 04:10:59 10° NE 04:13:50 15° E 04:16:42 10° ESE visible
11 Oct ? 05:02:25 10° NNE 05:07:11 40° E 05:11:58 10° SSE visible
11 Oct ? 17:58:13 10° WSW 18:00:54 15° W 18:03:37 10° NW visible
12 Oct ? 04:17:56 10° NE 04:21:14 17° E 04:24:32 10° SE visible
13 Oct ? 05:09:38 10° NNE 05:14:32 46° E 05:19:25 10° S visible
13 Oct ? 18:06:06 10° WSW 18:08:17 13° W 18:10:28 10° WNW visible
14 Oct ? 04:24:57 10° NE 04:28:37 20° E 04:32:17 10° SE visible
15 Oct ? 05:16:52 10° NNE 05:21:51 52° E 05:26:50 10° S visible
15 Oct ? 18:14:16 10° WSW 18:15:40 11° W 18:17:04 10° WNW visible
16 Oct ? 04:32:01 10° NE 04:35:59 22° E 04:39:56 10° SE visible
16 Oct ? 17:25:24 10° SSW 17:29:31 28° W 17:33:45 10° NW visible
